Regional Weather Roundup
Issued by NWS

Home | Current Version | Previous Version | Graphics & Text | Print | Product List | Glossary On
Versions: 1 2 3 4 5 6 7 8 9 10 11 12 13 14 15 16 17 18 19 20 21 22 23 24 25 26 27 28 29 30 31 32 33 34 35 36 37 38 39 40 41 42 43 44 45 46 47 48 49 50
000
ASUS43 KBIS 230310
RWRND

NORTH DAKOTA REGIONAL WEATHER ROUNDUP
NATIONAL WEATHER SERVICE BISMARCK ND
1000 PM CDT SAT APR 22 2017

NOTE: "FAIR" INDICATES FEW OR NO CLOUDS BELOW 12,000 FEET WITH NO
SIGNIFICANT WEATHER AND/OR OBSTRUCTIONS TO VISIBILITY.


NDZ001>003-009>011-017-230400-
NORTHWEST NORTH DAKOTA

CITY           SKY/WX    TMP DP  RH WIND       PRES   REMARKS
WILLISTON      CLOUDY    40  33  76 E12       30.15R
MINOT          CLOUDY    35  30  82 NE16      30.20R
MINOT AFB      CLOUDY    33  33  96 E16       30.20R
$$

NDZ018>021-031>035-040>046-230400-
SOUTHWEST NORTH DAKOTA

CITY           SKY/WX    TMP DP  RH WIND       PRES   REMARKS
BISMARCK       MOCLDY    43  36  76 NE23      30.11R
DICKINSON      CLOUDY    43  38  82 NE18      30.06R
GARRISON         N/A     37  32  82 E15G24    30.15R
HETTINGER ARPT CLOUDY    53  43  68 CALM      30.04F
$$

NDZ004>008-012>016-024-026-027-054-230400-
NORTHEAST NORTH DAKOTA

CITY           SKY/WX    TMP DP  RH WIND       PRES   REMARKS
GRAND FORKS    FLURRIES  34  31  88 NE13G25   30.23R
GRND FRKS AFB  CLOUDY    32  29  92 NE14      30.23S
DEVILS LAKE    CLOUDY    34  30  85 NE15      30.22R
$$

NDZ022-023-025-028>030-036>039-047>053-230400-
SOUTHEAST NORTH DAKOTA

CITY           SKY/WX    TMP DP  RH WIND       PRES   REMARKS
FARGO          CLOUDY    40  34  79 N23G36    30.13R
JAMESTOWN      FAIR      37  33  85 NE20G26   30.15R
$$





USA.gov is the U.S. government's official web portal to all federal, state and local government web resources and services.